Terug naar catalogus

STARLINK-34107

ActiefCommunicatieVLEO
NORAD 63960·PAYLOAD·🇺🇸 United States

Gelanceerd May 13, 2025 vanaf Cape Canaveral Space Force Station

Loading…

Volgende Passages (komende 24 uur)

TLE

VersSource: CelesTrak SupGP

Epoch: Sep 14, 2026, 22:52 UTC

1 63960C 25099J   26257.95326389 -.00005776  00000+0 -20943-3 0  2570
2 63960  43.0003 187.4615 0001516 271.6478 335.8529 15.27548746    11

Volg STARLINK-34107 in realtime met AllMySat

Download on the App Store